Showing default

YAM-10, 64580

Orbit data source: Space-Track

YAM-10, 64580 is an American payload satellite in SSO that was launched on Mon, 23 Jun 2025 UTC via an FALCON 9 launch vehicle from the Air Force Western Test Range (AFWTR). Payload-class satellites include a variety of spacecraft equipped with specific instruments for various scientific and technological missions. These include communications satellites like Starlink; space stations such as the ISS; scientific satellites like the Hubble; Earth observation satellites from companies like Planet Labs, Umbra, and HawkEye 360; GPS; miniature CubeSats for education and research; and military/defense satellites.

Loading next visibility...
Identifier
64580, 2025-135BE
Orbit
SSO
Country
Flag of USUS
Related business
Manufacturer
Airbus/Toulouse
Mission
Operational Commercial Technology
Bus & Motor
ARROW, Unknown motor
Mass
~150 kg wet, ~140 kg dry
Launch date (UTC)
2025-06-23 (1 year ago)
Launch vehicle
FALCON 9
Launch site
Air Force Western Test Range (AFWTR)
Object type
Payload
Rocket body
Debris
Shape & HBR
Trap Box + 2 Pan, 2.3 m
Radar Cross Section
2.032 m², Large (>1 m²)

Expand to show TLE details & history
Last TLE update: 10 hours ago

TLE from 10 hours ago
0 YAM-10
1 64580U 25135BE  26178.27335926  .00001947  00000-0  19834-3 0  9999
2 64580  97.7739 291.9855 0002331 346.0592  14.0562 14.91845716 55367
Epoch: 2026-06-27T06:33Z
TLE epoch observation values (Epoch: 2026-06-27T06:33:38.240Z)
Latitude
-0°
Longitude
-81.81371°
Altitude
593.646 km
Speed
7.564 km/s
True Right ascension
19h 27m 56s
True Declination
0° 00' 00"
Sunlit
Object was in full shadow at epoch
Visualization orbit readout
Latitude
Unknown
Longitude
Unknown
Altitude
Unknown
Speed
Unknown
Apparent Right ascension
Unknown
Apparent Declination
Unknown
Sunlit
N/A
Visualization observer readout
Local Sidereal Time
04:20:55
Azimuth
Unknown
Elevation
Unknown
Doppler factor
Unknown
Orbital elements
Apogee altitude
590.824 km
Perigee altitude
587.576 km
Semi-major axis
6,967.337 km
Eccentricity
0.00023
Inclination
97.7739°
RAAN
291.9855°
Arg. of periapsis
346.0592°
True anomaly
14.06269°
Mean anomaly
14.0562°
Eccentric anomaly
14.05944°
Mean motion
3.73201 °/min
Orbital period
96.46 mins
BSTAR
0.00019834
Loading maneuver chart data...
Computing Atmospheric mass density...
Loading historical data...
Loading historical data...
Loading historical data...
Loading historical data...
Loading historical data...
Loading historical data...
Loading historical data...

Documentation

Showing up to 5 results
|